Weather History for Taylorville, IL

Change the Weather History Date:

Tuesday, May 21, 2013

  Actual Average (KSPI) Record (KSPI)
Temperature  
Mean Temperature 70 °F 65 °F  
Max Temperature 80 °F 76 °F 94 °F (1941)
Min Temperature 60 °F 54 °F 35 °F (2002)
Degree Days  
Heating Degree Days 0 3  
Month to date heating degree days 103  
Since 1 July heating degree days 5448  
Cooling Degree Days 5 3  
Month to date cooling degree days 43  
Year to date cooling degree days 63  
Growing Degree Days 20 (Base 50)    
Moisture  
Dew Point 63 °F    
Average Humidity 80    
Maximum Humidity 100    
Minimum Humidity 61    
Precipitation  
Precipitation 0.11 in 0.14 in 1.98 in (1898)
Month to date precipitation 2.82  
Year to date precipitation 12.59  
Snow  
Snow 0.00 in 0.00 in 0.00 in ()
Month to date snowfall 0.0  
Since 1 July snowfall 20.9  
Snow Depth -    
Sea Level Pressure  
Sea Level Pressure 29.75 in    
Wind  
Wind Speed 14 mph (South)    
Max Wind Speed 22 mph    
Max Gust Speed 31 mph    
Visibility 10 miles    
Events Rain , Thunderstorm    
T = Trace of Precipitation, MM = Missing Value Source: NWS Daily Summary

Daily Weather History Graph

Daily Weather History Graph

Search for Another Location

Airport:

Trip Planner

Search our weather history database for the weather conditions in past years. The results will help you decide how hot, cold, wet, or windy it might be!

Date:

Astronomy

May. 21, 2013 Rise Set
Actual Time 5:38 AM CDT 8:10 PM CDT
Civil Twilight 5:07 AM CDT 8:41 PM CDT
Nautical Twilight 4:28 AM CDT 9:19 PM CDT
Astronomical Twilight 3:45 AM CDT 10:02 PM CDT
Moon 4:24 PM CDT (5/21) 3:05 AM CDT (5/21)
Length of Visible Light 15h 34m
Length of Day
14h 32m
Waxing Gibbous, 84% of the Moon is Illuminated
May 21
Waxing Gibbous
May 24
Full
May 31
Last Quarter
Jun 8
New
Jun 16
First Quarter

Hourly Weather History & Observations

Time (CDT) Temp. Heat Index Dew Point Humidity Pressure Visibility Wind Dir Wind Speed Gust Speed Precip Events Conditions
12:15 AM 62.6 °F - 60.8 °F 94% 29.86 in 10.0 mi SW 12.7 mph - 0.10 in Rain , Thunderstorm Heavy Thunderstorms and Rain
12:35 AM 62.6 °F - 60.8 °F 94% 29.84 in 10.0 mi SSW 9.2 mph - 0.18 in Rain , Thunderstorm Thunderstorms and Rain
12:55 AM 60.8 °F - 60.8 °F 100% 29.80 in 10.0 mi SSE 8.1 mph - 0.03 in Rain , Thunderstorm Thunderstorms and Rain
1:15 AM 60.8 °F - 60.8 °F 100% 29.79 in 10.0 mi SSE 11.5 mph - 0.07 in Rain , Thunderstorm Light Thunderstorms and Rain
1:35 AM 60.8 °F - 60.8 °F 100% 29.77 in 10.0 mi SSE 15.0 mph - 0.08 in Rain Light Rain
1:55 AM 60.8 °F - 60.8 °F 100% 29.76 in 10.0 mi SSE 15.0 mph 19.6 mph N/A   Scattered Clouds
2:15 AM 62.6 °F - 60.8 °F 94% 29.74 in 10.0 mi SE 11.5 mph - N/A   Clear
2:35 AM 62.6 °F - 60.8 °F 94% 29.75 in 10.0 mi SSE 10.4 mph - N/A   Clear
2:55 AM 62.6 °F - 60.8 °F 94% 29.76 in 10.0 mi South 11.5 mph - N/A   Scattered Clouds
3:15 AM 64.4 °F - 60.8 °F 88% 29.77 in 10.0 mi South 21.9 mph 31.1 mph N/A   Mostly Cloudy
3:35 AM 62.6 °F - 60.8 °F 94% 29.77 in 10.0 mi South 20.7 mph 28.8 mph N/A Rain Rain
3:55 AM 62.6 °F - 60.8 °F 94% 29.77 in 10.0 mi South 17.3 mph 25.3 mph N/A Thunderstorm Mostly Cloudy
4:15 AM 62.6 °F - 60.8 °F 94% 29.77 in 10.0 mi South 16.1 mph 24.2 mph N/A Rain Light Rain
4:35 AM 62.6 °F - 60.8 °F 94% 29.75 in 10.0 mi South 16.1 mph - N/A   Mostly Cloudy
4:55 AM 62.6 °F - 60.8 °F 94% 29.74 in 10.0 mi South 15.0 mph 23.0 mph N/A   Clear
5:15 AM 62.6 °F - 60.8 °F 94% 29.74 in 10.0 mi South 17.3 mph - N/A   Clear
5:35 AM 64.4 °F - 60.8 °F 88% 29.75 in 10.0 mi South 17.3 mph - N/A   Clear
5:55 AM 64.4 °F - 60.8 °F 88% 29.74 in 10.0 mi South 15.0 mph 20.7 mph N/A   Clear
6:15 AM 62.6 °F - 60.8 °F 94% 29.74 in 10.0 mi South 11.5 mph 18.4 mph N/A   Clear
6:35 AM 64.4 °F - 60.8 °F 88% 29.74 in 10.0 mi South 11.5 mph - N/A   Clear
6:55 AM 64.4 °F - 60.8 °F 88% 29.75 in 10.0 mi South 12.7 mph 18.4 mph N/A   Clear
7:15 AM 64.4 °F - 60.8 °F 88% 29.77 in 10.0 mi South 13.8 mph - N/A   Scattered Clouds
7:35 AM 64.4 °F - 60.8 °F 88% 29.78 in 10.0 mi South 15.0 mph 18.4 mph N/A   Mostly Cloudy
7:55 AM 64.4 °F - 62.6 °F 94% 29.79 in 10.0 mi South 16.1 mph 20.7 mph N/A   Mostly Cloudy
8:15 AM 66.2 °F - 62.6 °F 88% 29.78 in 10.0 mi South 16.1 mph - N/A   Mostly Cloudy
8:35 AM 66.2 °F - 62.6 °F 88% 29.79 in 10.0 mi South 16.1 mph 21.9 mph N/A   Scattered Clouds
8:55 AM 68.0 °F - 62.6 °F 83% 29.79 in 10.0 mi South 11.5 mph - N/A   Scattered Clouds
9:15 AM 68.0 °F - 62.6 °F 83% 29.78 in 10.0 mi SSW 13.8 mph - N/A   Clear
9:35 AM 69.8 °F - 62.6 °F 78% 29.78 in 10.0 mi South 15.0 mph 18.4 mph N/A   Scattered Clouds
9:55 AM 71.6 °F - 62.6 °F 73% 29.77 in 10.0 mi South 16.1 mph 20.7 mph N/A   Scattered Clouds
10:15 AM 71.6 °F - 62.6 °F 73% 29.77 in 10.0 mi South 21.9 mph 25.3 mph N/A   Clear
10:35 AM 71.6 °F - 64.4 °F 78% 29.78 in 10.0 mi South 15.0 mph 19.6 mph N/A   Clear
10:55 AM 73.4 °F - 64.4 °F 73% 29.77 in 10.0 mi SSW 17.3 mph - N/A   Clear
11:15 AM 73.4 °F - 64.4 °F 73% 29.77 in 10.0 mi South 16.1 mph 24.2 mph N/A   Clear
11:35 AM 73.4 °F - 64.4 °F 73% 29.75 in 10.0 mi South 17.3 mph 24.2 mph N/A   Clear
11:55 AM 73.4 °F - 64.4 °F 73% 29.76 in 10.0 mi South 13.8 mph - N/A   Clear
12:15 PM 75.2 °F - 64.4 °F 69% 29.76 in 10.0 mi South 13.8 mph - N/A   Clear
12:35 PM 75.2 °F - 64.4 °F 69% 29.76 in 10.0 mi South 15.0 mph - N/A   Clear
12:55 PM 77.0 °F - 64.4 °F 65% 29.77 in 10.0 mi SSW 18.4 mph - N/A   Clear
1:15 PM 77.0 °F - 66.2 °F 69% 29.76 in 10.0 mi SW 17.3 mph 21.9 mph N/A   Scattered Clouds
1:35 PM 78.8 °F - 66.2 °F 65% 29.77 in 10.0 mi SSW 17.3 mph 21.9 mph N/A   Scattered Clouds
1:55 PM 77.0 °F - 66.2 °F 69% 29.76 in 10.0 mi South 15.0 mph 21.9 mph N/A   Clear
2:15 PM 78.8 °F - 66.2 °F 65% 29.76 in 10.0 mi South 13.8 mph 21.9 mph N/A   Clear
2:35 PM 78.8 °F - 66.2 °F 65% 29.75 in 10.0 mi SSW 15.0 mph 20.7 mph N/A   Clear
2:55 PM 78.8 °F - 66.2 °F 65% 29.75 in 10.0 mi SSW 15.0 mph - N/A   Clear
3:15 PM 80.6 °F 82.7 °F 66.2 °F 61% 29.75 in 10.0 mi SSW 15.0 mph 21.9 mph N/A   Clear
3:35 PM 78.8 °F - 64.4 °F 61% 29.74 in 10.0 mi South 16.1 mph 19.6 mph N/A   Clear
3:55 PM 78.8 °F - 64.4 °F 61% 29.74 in 10.0 mi SSW 15.0 mph - N/A   Scattered Clouds
4:15 PM 78.8 °F - 64.4 °F 61% 29.73 in 10.0 mi SSW 15.0 mph - N/A   Clear
4:35 PM 77.0 °F - 64.4 °F 65% 29.72 in 10.0 mi SSW 15.0 mph 23.0 mph N/A   Scattered Clouds
4:55 PM 78.8 °F - 64.4 °F 61% 29.71 in 10.0 mi SSW 15.0 mph - N/A   Clear
5:15 PM 78.8 °F - 64.4 °F 61% 29.70 in 10.0 mi South 11.5 mph 18.4 mph N/A   Clear
5:35 PM 77.0 °F - 64.4 °F 65% 29.69 in 10.0 mi SSW 12.7 mph - N/A   Clear
5:55 PM 75.2 °F - 64.4 °F 69% 29.70 in 10.0 mi South 10.4 mph - N/A   Clear
6:15 PM 75.2 °F - 62.6 °F 65% 29.70 in 10.0 mi South 17.3 mph 20.7 mph N/A   Clear
6:35 PM 75.2 °F - 62.6 °F 65% 29.70 in 10.0 mi South 11.5 mph - N/A   Clear
6:55 PM 73.4 °F - 64.4 °F 73% 29.71 in 10.0 mi South 17.3 mph 23.0 mph N/A   Clear
7:15 PM 73.4 °F - 64.4 °F 73% 29.72 in 10.0 mi South 15.0 mph 19.6 mph N/A   Clear
7:35 PM 71.6 °F - 64.4 °F 78% 29.71 in 10.0 mi South 9.2 mph - N/A   Clear
7:55 PM 71.6 °F - 62.6 °F 73% 29.72 in 10.0 mi South 12.7 mph - N/A   Clear
8:15 PM 69.8 °F - 62.6 °F 78% 29.73 in 10.0 mi South 10.4 mph - N/A   Clear
8:35 PM 69.8 °F - 62.6 °F 78% 29.73 in 10.0 mi South 10.4 mph - N/A   Scattered Clouds
8:55 PM 69.8 °F - 62.6 °F 78% 29.73 in 10.0 mi South 10.4 mph - N/A   Mostly Cloudy
9:15 PM 69.8 °F - 62.6 °F 78% 29.72 in 10.0 mi South 10.4 mph - N/A   Scattered Clouds
9:35 PM 69.8 °F - 62.6 °F 78% 29.71 in 10.0 mi South 9.2 mph - N/A   Scattered Clouds
9:55 PM 68.0 °F - 62.6 °F 83% 29.71 in 10.0 mi South 6.9 mph - N/A   Overcast
10:15 PM 68.0 °F - 62.6 °F 83% 29.71 in 10.0 mi South 8.1 mph - N/A   Overcast
10:35 PM 68.0 °F - 62.6 °F 83% 29.71 in 10.0 mi South 11.5 mph - N/A   Overcast
10:55 PM 66.2 °F - 62.6 °F 88% 29.71 in 10.0 mi South 10.4 mph - N/A   Overcast
11:15 PM 66.2 °F - 64.4 °F 94% 29.71 in 10.0 mi South 8.1 mph - N/A   Overcast
11:35 PM 66.2 °F - 64.4 °F 94% 29.71 in 10.0 mi South 8.1 mph - N/A   Overcast
11:55 PM 66.2 °F - 64.4 °F 94% 29.71 in 10.0 mi South 8.1 mph - N/A   Overcast